www.pogodaiklimat.ru

ПОГОДА в Седалии, MO

  • Прогноз погоды в Седалии
  • Монитор погоды в Седалии
  • Климат в Седалии

АРХИВ ПОГОДЫ в Седалии

Время (UTC), дата Ветер
(напр.,м/с)
 
Видим.   Явления Облачность Т
(С)
Тd
(С)
f
(%)
Тe
(С)
Тes
(С)
Комфортность

P
(гПа)

Po
(гПа)
Тmin
(С)
Tmax
(С)
R
(мм)
SD
(см)
09:08 25.03 С  6 км  дымка  10/10 150 м  +9.4  +8.9  97  +6  +6      985.8         
09:16 25.03 С  6 км  дымка  10/10 150 м  +9.4  +8.9  97  +5  +5      985.8         
09:53 25.03 С  5 км  дымка  10/10 210 м  +9.4  +8.9  97  +5  +5    1019.3  986.1         
10:23 25.03 С  6 км  дымка  10/10 150 м  +8.9  +8.3  96  +5  +5      986.5         
10:42 25.03 С  8 км  дымка  10/10 210 м  +8.9  +8.3  96  +4  +4      986.8         
10:53 25.03 С  8 км  дымка  10/10 270 м  +8.9  +8.3  96  +4  +4    1020.1  986.8  +8.9  +10.6     
11:53 25.03 С  11 км    10/10 240 м  +8.9  +7.2  89  +5  +5    1021.4  988.1         
12:28 25.03 С  6 км  дымка  10/10 150 м  +8.3  +7.8  97  +4  +4      988.8         
12:53 25.03 С  6 км  дымка  10/10 150 м  +8.3  +7.8  97  +4  +4    1022.4  989.1         
13:00 25.03 С  5 км  дымка  10/10 120 м  +8.3  +7.8  97  +4  +4      989.1         
13:22 25.03 С  8 км  дымка  10/10 180 м  +8.3  +7.2  93  +4  +4      989.4         
13:53 25.03 С  8 км  дымка  10/10 210 м  +8.3  +7.2  93  +4  +4    1023.2  989.7         
14:14 25.03 СВ  6 км  дымка  10/10 150 м  +7.8  +7.2  96  +4  +4      990.1         
14:46 25.03 С  4 км  дымка  10/10 150 м  +7.8  +6.7  93  +3  +3      990.4         
14:53 25.03 С  5 км  дымка  10/10 150 м  +7.8  +6.7  93  +3  +3    1024.1  990.7         
15:27 25.03 СВ  11 км    10/10 210 м  +7.8  +6.1  89  +4  +4      990.7         
15:53 25.03 С  8 км  дымка  10/10 270 м  +7.8  +6.7  93  +3  +3    1024.6  991.1         
16:53 25.03 С  10 км  дымка  10/10 240 м  +8.3  +6.1  86  +5  +5    1025.0  991.4  +7.8  +8.9     
17:14 25.03 С  10 км  мгла  10/10 330 м  +8.9  +6.1  83  +5  +5      991.4         
17:53 25.03 С  13 км    10/10 360 м  +9.4  +6.1  80  +6  +6    1025.1  991.7         
18:28 25.03 СВ  14 км    10/5 450 м
[средняя] 
+10.6  +5.6  71  +8  +9      991.4         
18:53 25.03 С  14 км    10/2 660 м
[средняя] 
+11.1  +5.6  69  +9  +11    1024.8  991.4         
19:53 25.03 СВ  5
{9} 
16 км    5/2 960 м
[средняя] 
+12.8  +4.4  57  +11  +13    1024.5  991.1         
20:53 25.03 С  16 км    2/2 1170 м  +13.9  +4.4  53  +13  +18    1024.4  991.1         
21:53 25.03 С  16 км    8/8 1500 м  +13.9  +2.8  47  +13  +14    1024.6  991.4         
22:53 25.03 С  16 км    2/2 1650 м  +12.8  +3.9  55  +11  +12    1024.7  991.4  +8.3  +14.4     
23:53 25.03 СВ  16 км    ясно  +10.6  +2.2  56  +9  +9    1024.9  991.4         
00:53 26.03 С  16 км    10/10 1800 м  +10.6  +3.3  61  +10  +10    1025.7  992.0         
01:53 26.03 СЗ  16 км    10/10 1800 м  +10.0  +3.9  66  +8  +8    1026.5  993.0         
02:53 26.03 С  16 км    10/10 1500 м  +10.0  +4.4  68  +8  +8    1027.0  993.3         
03:53 26.03 СВ  16 км    10/10 1500 м  +10.0  +3.3  63  +8  +8    1027.1  993.3         
04:53 26.03 В  16 км    10/10 1410 м  +9.4  +2.8  63  +7  +7    1027.4  993.7  +9.4  +12.8     
05:53 26.03 В  16 км    8/0 2100 м
[средняя] 
+8.3  +2.8  68  +6  +6    1027.6  994.0         
06:53 26.03 СВ  16 км    8/0 2100 м
[средняя] 
+6.7  +2.8  76  +4  +4    1028.0  994.3         
07:53 26.03 В  16 км    2/0 2100 м
[средняя] 
+5.6  +2.2  79  +3  +3    1027.9  994.3         
08:53 26.03 В  16 км    ясно  +4.4  +1.7  83  +1  +1    1027.8  994.0         
09:53 26.03 В  16 км    ясно  +4.4  +1.7  83  +2  +2    1028.5  994.7         
10:53 26.03 В  16 км    ясно  +3.9  +1.1  82  +1  +1    1028.8  995.0  +3.9  +9.4     
11:53 26.03 В  16 км    ясно  +3.9  +1.1  82  +2  +2    1029.5  995.6         
12:53 26.03 В  16 км    ясно  +6.7  +1.7  70  +3  +3    1030.0  996.3         
13:53 26.03 В  16 км    ясно  +8.9  -0.6  51  +6  +8    1030.3  996.6         
14:53 26.03 ЮВ  16 км    ясно  +10.0  -0.6  48  +8  +14    1030.6  996.9         
15:53 26.03     16 км    ясно  +12.2  +1.7  49  +12  +26  опасность
простуды 
1030.5  996.9         
16:53 26.03 нст  16 км    ясно  +11.7  +1.1  48  +11  +25  опасность
простуды 
1029.8  996.3  +3.3  +12.2     
17:53 26.03   16 км    ясно  +12.2  +0.6  45  +12  +31  опасность
простуды 
1028.9  995.3         
18:53 26.03 нст  16 км    ясно  +13.9  +1.7  44  +13  +26  опасность
простуды 
1028.2  994.7         
19:53 26.03     16 км    ясно  +14.4  +1.7  42  +14  +30  опасность
простуды 
1027.9  994.3         
20:53 26.03 В  16 км    ясно  +14.4  +1.7  42  +13  +18    1027.3  993.7         

 

Местоположение метеостанции Sedalia Memorial Airport: широта 38.7122 долгота -93.1744 высота над уровнем моря 277 м.

В архиве по умолчанию представлена погода в Седалии за последние 1-2 суток. Обновление информации о фактической погоде в базе происходит ежечасно! Архивные данные за месяц целиком и за предыдущие месяцы Вы можете получить, выбрав интересующий диапазон дат из раскрывающегося списка и нажав кнопку "Ввод!".

Внимание! Архив погоды МЕТАР в базе сайта хранится не более 60 дней. Нет смысла пытаться выбрать более раннюю дату.

Внимание! Время в таблицах - всемирное. Для получения местного времени необходимо прибавить поправку, которая в Седалии равна -6 ч.

Ветер - указаны скорость ветра в м/с и направление, откуда дует ветер: С - северный, СВ - северо-восточный, В - восточный, ЮВ - юго-восточный, Ю - южный, ЮЗ - юго-западный, З - западный, СЗ - северо-западный.
Видимость - горизонтальная дальность видимости в метрах или километрах. При видимости от 1 до 10 км при отсутствии осадков обычно наблюдается дымка, при ухудшении видимости до 1 км и менее - туман. В сухую погоду видимость может ухудшаться дымом, пылью или мглою.
Атмосферные явления - указаны явления, наблюдавшиеся в указанный момент времени.
Облачность - указаны через наклонную черту верхняя и нижняя облачность в баллах и высота нижней границы облаков в метрах. Внимание: облачность, как и прочие метеорологические величины в США измеряются автоматическими метеостанциями. Указанные значения в баллах носят условный характер и показывают процент времени, в течение которого, в среднем, лазерный луч высотомера отражался от облаков обратно.
T - Температура воздуха - температура, измеренная на высоте 2 м над землей.
Td - Температура точки росы - температура, при понижении до которой содержащийся в воздухе водяной пар достигнет насыщения.
f - Относительная влажность воздуха - влажноcть воздуха, измеренная на высоте 2 м над землей.
Te - Эффективная температура - температура, которую ощущает одетый по сезону человек в тени. Характеристика душности погоды. При расчете учитывается влияние влажности воздуха и скорости ветра на теплоощущения человека.
Tes - Эффективная температура на солнце - температура, которую ощущает человек, с поправкой на солнечный нагрев. Характеристика знойности погоды. Зависит от высоты солнца над горизонтом, облачности и скорости ветра. Ночью, в пасмурную погоду, а также при ветре 12 м/с и более поправка равна нулю.
P - Атмосферное давление - приведенное к уровню моря атмосферное давление.
Po - Атмосферное давление - измеренное на уровне метеостанции атмосферное давление.
Tmin - Минимальная температура - минимум температуры воздуха на высоте 2 м над землей.
Tmax - Максимальная температура - максимум температуры воздуха на высоте 2 м над землей.
R - Количество осадков - Количество выпавших осадков за 3 или 6 часов, мм.
SD - Снежный покров - Высота снежного покрова, см.